Location: Nebula Knoll Observatory
(43.6666°N, 71.0000°W)
Time: 00:24:42
(UTC-05:00)

Cosmos 1782 - Visible Passes

Search period start: 26 February 2017 00:00
Search period end: 08 March 2017 00:00
Orbit: 539 x 555 km, 82.5° (Epoch: 24 February)

Date Brightness Start Highest point End Pass type
(mag) Time Alt. Az. Time Alt. Az. Time Alt. Az.
26 Feb 4.1 04:31:15 10° SSE 04:34:58 41° E 04:38:44 10° NNE visible
27 Feb 3.9 04:25:57 10° SSE 04:29:43 44° E 04:33:31 10° NNE visible
28 Feb 3.8 04:20:40 10° SSE 04:24:27 47° E 04:28:18 10° NNE visible
01 Mar 3.6 04:15:40 12° SSE 04:19:12 51° E 04:23:05 10° NNE visible
02 Mar 3.4 04:11:50 24° SSE 04:13:57 54° E 04:17:52 10° NNE visible
03 Mar 3.3 04:07:37 42° SSE 04:08:42 59° E 04:12:39 10° NNE visible
03 Mar 4.8 05:44:09 10° W 05:45:29 11° WNW 05:46:49 10° NW visible
04 Mar 3.1 04:03:11 61° ESE 04:03:27 63° E 04:07:25 10° NNE visible
04 Mar 4.8 05:39:21 10° W 05:40:17 11° WNW 05:41:13 10° NW visible
05 Mar 3.2 03:58:36 62° NE 03:58:36 62° NE 04:02:11 10° NNE visible
06 Mar 3.5 03:53:55 49° NNE 03:53:55 49° NNE 03:56:57 10° NNE visible
07 Mar 3.9 03:49:08 38° NNE 03:49:08 38° NNE 03:51:43 10° N visible
